Tracking 35331 objects as of 16-Sep-2026
HD Live streaming from Space Station
objects crossing your sky now

SPACEBEE-136


SPACEBEE-136 is no longer on orbit


NORAD ID: 52164
Int'l Code: 2022-033H
Launch date: April 1, 2022
Source: United States (US)
Launch site: AIR FORCE EASTERN TEST RANGE (AFETR)
Decay date: 2023-10-03
Your satellite tracking list
Your tracking list is empty




NASA's NSSDC Master Catalog

Two Line Element Set (TLE):
1 52164U 22033H   23274.29992731  .14117271  24693-5  11942-2 0  9990
2 52164  97.3010   3.6644 0011692 279.4965  80.5013 16.39418230 84167
Source of the keplerian elements: AFSPC